Burlington, VT

6:43 PM EST on November 19, 2019 (GMT -0500)
Burlington International

Weather History for KBTV - September, 2019

Change the Weather History Date:

Sunday, September 22, 2019

  Actual Average Record
Temperature  
Mean Temperature 68 °F 58 °F  
Max Temperature 81 °F 68 °F 88 °F (1965)
Min Temperature 55 °F 48 °F 31 °F (1962)
Degree Days  
Heating Degree Days 0 8  
Month to date heating degree days 69 99  
Since 1 July heating degree days 73 141  
Cooling Degree Days 3 1  
Month to date cooling degree days 15 40  
Year to date cooling degree days 595 488  
Growing Degree Days 18 (Base 50)    
Moisture  
Dew Point 58 °F    
Average Humidity 69    
Maximum Humidity 93    
Minimum Humidity 45    
Precipitation  
Precipitation 0.00 in 0.14 in 2.36 in (1992)
Month to date precipitation 2.23 2.60  
Year to date precipitation 28.52 26.67  
Sea Level Pressure  
Sea Level Pressure 30.01 in    
Wind  
Wind Speed 8 mph (South)    
Max Wind Speed 18 mph    
Max Gust Speed 24 mph    
Visibility 10 miles    
Events      
T = Trace of Precipitation, MM = Missing Value Source: NWS Daily Summary

Daily Weather History Graph

Daily Weather History Graph

Search for Another Location

Airport or City:

Astronomy

Sep. 22, 2019 Rise Set
Actual Time 6:39 AM EDT 6:50 PM EDT
Civil Twilight 6:10 AM EDT 7:19 PM EDT
Nautical Twilight 5:36 AM EDT 7:53 PM EDT
Astronomical Twilight 5:01 AM EDT 8:28 PM EDT
Moon No Moon Rise 2:58 PM EDT (9/22)
Length of Visible Light 13h 09m
Length of Day
12h 11m
Last Quarter, 44% of the Moon is Illuminated
Sep 22
Last Quarter
Sep 28
New
Oct 5
First Quarter
Oct 13
Full
Oct 21
Last Quarter

Hourly Weather History & Observations

Time (EDT) Temp. Heat Index Dew Point Humidity Pressure Visibility Wind Dir Wind Speed Gust Speed Precip Events Conditions
12:54 AM 61.0 °F - 57.9 °F 90% 30.13 in 10.0 mi Calm Calm - N/A   Clear
1:54 AM 59.0 °F - 57.0 °F 93% 30.13 in 10.0 mi Calm Calm - N/A   Clear
2:54 AM 59.0 °F - 55.9 °F 90% 30.11 in 10.0 mi Calm Calm - N/A   Clear
3:54 AM 59.0 °F - 55.0 °F 87% 30.11 in 10.0 mi Calm Calm - N/A   Clear
4:54 AM 57.0 °F - 54.0 °F 89% 30.12 in 10.0 mi Calm Calm - N/A   Clear
5:54 AM 57.0 °F - 54.0 °F 89% 30.11 in 10.0 mi Calm Calm - N/A   Partly Cloudy
6:54 AM 55.9 °F - 53.1 °F 90% 30.10 in 10.0 mi Calm Calm - N/A   Scattered Clouds
7:54 AM 60.1 °F - 55.9 °F 86% 30.10 in 10.0 mi ESE 4.6 mph - N/A   Partly Cloudy
8:54 AM 66.9 °F - 55.0 °F 66% 30.08 in 10.0 mi South 8.1 mph - N/A   Mostly Cloudy
9:54 AM 73.0 °F - 55.0 °F 53% 30.06 in 10.0 mi South 9.2 mph - N/A   Mostly Cloudy
10:54 AM 75.0 °F - 54.0 °F 48% 30.05 in 10.0 mi South 11.5 mph 20.7 mph N/A   Mostly Cloudy
11:54 AM 77.0 °F - 55.0 °F 47% 30.03 in 10.0 mi SSW 11.5 mph - N/A   Mostly Cloudy
12:54 PM 79.0 °F - 55.9 °F 45% 30.01 in 10.0 mi SSW 12.7 mph - N/A   Mostly Cloudy
1:54 PM 81.0 °F 81.1 °F 57.9 °F 45% 29.97 in 10.0 mi South 15.0 mph - N/A   Mostly Cloudy
2:54 PM 80.1 °F 80.7 °F 59.0 °F 48% 29.96 in 10.0 mi SSW 10.4 mph 21.9 mph N/A   Mostly Cloudy
3:54 PM 80.1 °F 81.1 °F 61.0 °F 52% 29.94 in 10.0 mi South 11.5 mph - N/A   Mostly Cloudy
4:54 PM 80.1 °F 81.1 °F 61.0 °F 52% 29.92 in 10.0 mi South 9.2 mph - N/A   Mostly Cloudy
5:54 PM 80.1 °F 81.2 °F 62.1 °F 54% 29.91 in 10.0 mi South 9.2 mph - N/A   Mostly Cloudy
6:54 PM 78.1 °F - 63.0 °F 60% 29.89 in 10.0 mi South 9.2 mph - N/A   Mostly Cloudy
7:54 PM 77.0 °F - 64.0 °F 64% 29.89 in 10.0 mi South 11.5 mph - N/A   Scattered Clouds
8:54 PM 77.0 °F - 64.0 °F 64% 29.88 in 10.0 mi South 11.5 mph - N/A   Scattered Clouds
9:54 PM 77.0 °F - 63.0 °F 62% 29.86 in 10.0 mi South 12.7 mph - N/A   Scattered Clouds
10:54 PM 75.0 °F - 63.0 °F 66% 29.84 in 10.0 mi South 10.4 mph - N/A   Clear
11:54 PM 75.0 °F - 63.0 °F 66% 29.83 in 10.0 mi South 12.7 mph - N/A   Clear